Wetterdaten: Sonntag, 12.07.2015
Datum Zeit Temp. Auen Feucht Auen Luftdruck Regen Richtung Richtung Windben
12.07.2015 00:00 16,1 C 92 % 1017,5 hPa 0,0 mm W 261 3,2 km/h (1 Bft)
12.07.2015 00:05 16,2 C 92 % 1017,4 hPa 0,0 mm W 261 3,2 km/h (1 Bft)
12.07.2015 00:10 16,1 C 92 % 1017,4 hPa 0,0 mm W 261 1,6 km/h (1 Bft)
12.07.2015 00:15 16,0 C 92 % 1017,4 hPa 0,0 mm W 261 0,0 km/h (0 Bft)
12.07.2015 00:20 15,9 C 92 % 1017,4 hPa 0,0 mm W 261 1,6 km/h (1 Bft)
12.07.2015 00:25 15,8 C 92 % 1017,3 hPa 0,0 mm W 261 0,0 km/h (0 Bft)
12.07.2015 00:30 15,8 C 92 % 1017,4 hPa 0,0 mm W 261 1,6 km/h (1 Bft)
12.07.2015 00:35 15,8 C 92 % 1017,4 hPa 0,0 mm W 261 1,6 km/h (1 Bft)
12.07.2015 00:40 15,8 C 92 % 1017,4 hPa 0,0 mm W 261 3,2 km/h (1 Bft)
12.07.2015 00:45 15,8 C 92 % 1017,3 hPa 0,0 mm W 261 1,6 km/h (1 Bft)
12.07.2015 00:50 15,8 C 92 % 1017,3 hPa 0,0 mm W 261 0,0 km/h (0 Bft)
12.07.2015 00:55 15,7 C 92 % 1017,3 hPa 0,0 mm W 261 3,2 km/h (1 Bft)
12.07.2015 01:00 15,8 C 92 % 1017,3 hPa 0,0 mm W 261 1,6 km/h (1 Bft)
12.07.2015 01:05 15,7 C 92 % 1017,3 hPa 0,0 mm W 261 1,6 km/h (1 Bft)
12.07.2015 01:10 15,4 C 92 % 1017,3 hPa 0,0 mm W 261 0,0 km/h (0 Bft)
12.07.2015 01:15 15,3 C 92 % 1017,3 hPa 0,0 mm W 261 0,0 km/h (0 Bft)
12.07.2015 01:20 15,2 C 92 % 1017,4 hPa 0,0 mm W 261 0,0 km/h (0 Bft)
12.07.2015 01:25 15,1 C 92 % 1017,4 hPa 0,0 mm W 261 0,0 km/h (0 Bft)
12.07.2015 01:30 15,2 C 92 % 1017,3 hPa 0,0 mm W 261 0,0 km/h (0 Bft)
12.07.2015 01:35 15,2 C 93 % 1017,3 hPa 0,0 mm W 261 0,0 km/h (0 Bft)
12.07.2015 01:40 15,1 C 93 % 1017,4 hPa 0,0 mm W 261 0,0 km/h (0 Bft)
12.07.2015 01:45 15,1 C 93 % 1017,3 hPa 0,0 mm W 261 0,0 km/h (0 Bft)
12.07.2015 01:50 14,9 C 92 % 1017,3 hPa 0,0 mm W 261 0,0 km/h (0 Bft)
12.07.2015 01:55 14,8 C 92 % 1017,2 hPa 0,0 mm W 261 0,0 km/h (0 Bft)
12.07.2015 02:00 14,8 C 93 % 1017,2 hPa 0,0 mm W 261 0,0 km/h (0 Bft)
12.07.2015 02:05 14,9 C 93 % 1017,1 hPa 0,0 mm W 261 0,0 km/h (0 Bft)
12.07.2015 02:10 14,8 C 93 % 1017,2 hPa 0,0 mm W 261 0,0 km/h (0 Bft)
12.07.2015 02:15 14,6 C 92 % 1017,2 hPa 0,0 mm W 261 1,6 km/h (1 Bft)
12.07.2015 02:20 14,5 C 93 % 1017,1 hPa 0,0 mm W 261 0,0 km/h (0 Bft)
12.07.2015 02:25 14,3 C 93 % 1017,0 hPa 0,0 mm W 261 0,0 km/h (0 Bft)
12.07.2015 02:30 14,4 C 93 % 1017,0 hPa 0,0 mm W 261 0,0 km/h (0 Bft)
12.07.2015 02:35 14,3 C 93 % 1016,9 hPa 0,0 mm W 261 0,0 km/h (0 Bft)
12.07.2015 02:40 14,4 C 93 % 1017,0 hPa 0,0 mm W 261 0,0 km/h (0 Bft)
12.07.2015 02:45 14,2 C 93 % 1016,9 hPa 0,0 mm W 261 0,0 km/h (0 Bft)
12.07.2015 02:50 14,2 C 93 % 1017,0 hPa 0,0 mm W 261 0,0 km/h (0 Bft)
12.07.2015 02:55 14,1 C 93 % 1016,9 hPa 0,0 mm W 261 0,0 km/h (0 Bft)
12.07.2015 03:00 14,0 C 93 % 1016,9 hPa 0,0 mm W 261 0,0 km/h (0 Bft)
12.07.2015 03:05 14,1 C 93 % 1017,0 hPa 0,0 mm W 261 0,0 km/h (0 Bft)
12.07.2015 03:10 13,8 C 93 % 1017,0 hPa 0,0 mm W 261 0,0 km/h (0 Bft)
12.07.2015 03:15 13,7 C 93 % 1017,0 hPa 0,0 mm W 261 0,0 km/h (0 Bft)
12.07.2015 03:20 13,7 C 93 % 1017,0 hPa 0,0 mm W 261 0,0 km/h (0 Bft)
12.07.2015 03:25 13,6 C 93 % 1017,0 hPa 0,0 mm W 261 0,0 km/h (0 Bft)
12.07.2015 03:30 13,7 C 93 % 1017,0 hPa 0,0 mm W 261 0,0 km/h (0 Bft)
12.07.2015 03:35 13,6 C 93 % 1016,9 hPa 0,0 mm W 261 0,0 km/h (0 Bft)
12.07.2015 03:40 13,6 C 93 % 1017,0 hPa 0,0 mm W 261 0,0 km/h (0 Bft)
12.07.2015 03:45 13,6 C 93 % 1017,0 hPa 0,0 mm W 261 0,0 km/h (0 Bft)
12.07.2015 03:50 13,6 C 93 % 1017,0 hPa 0,0 mm W 261 0,0 km/h (0 Bft)
12.07.2015 03:55 13,7 C 93 % 1017,0 hPa 0,0 mm W 261 0,0 km/h (0 Bft)
12.07.2015 04:00 13,7 C 93 % 1017,0 hPa 0,0 mm W 261 1,6 km/h (1 Bft)
12.07.2015 04:05 13,7 C 93 % 1016,9 hPa 0,0 mm W 261 0,0 km/h (0 Bft)
12.07.2015 04:10 13,8 C 93 % 1016,9 hPa 0,0 mm W 261 1,6 km/h (1 Bft)
12.07.2015 04:15 13,9 C 93 % 1017,0 hPa 0,0 mm W 261 1,6 km/h (1 Bft)
12.07.2015 04:20 14,0 C 93 % 1017,0 hPa 0,0 mm W 261 1,6 km/h (1 Bft)
12.07.2015 04:25 14,1 C 93 % 1017,0 hPa 0,0 mm W 261 1,6 km/h (1 Bft)
12.07.2015 04:30 14,0 C 93 % 1016,9 hPa 0,0 mm W 261 0,0 km/h (0 Bft)
12.07.2015 04:35 13,9 C 93 % 1016,9 hPa 0,0 mm W 261 0,0 km/h (0 Bft)
12.07.2015 04:40 13,9 C 93 % 1016,9 hPa 0,0 mm W 261 0,0 km/h (0 Bft)
12.07.2015 04:45 13,9 C 93 % 1016,9 hPa 0,0 mm W 261 0,0 km/h (0 Bft)
12.07.2015 04:50 14,1 C 93 % 1017,0 hPa 0,0 mm W 261 1,6 km/h (1 Bft)
12.07.2015 04:55 14,1 C 93 % 1017,0 hPa 0,0 mm W 261 0,0 km/h (0 Bft)
12.07.2015 05:00 14,1 C 93 % 1017,0 hPa 0,0 mm W 261 0,0 km/h (0 Bft)
12.07.2015 05:05 14,1 C 93 % 1016,9 hPa 0,0 mm W 261 0,0 km/h (0 Bft)
12.07.2015 05:10 13,9 C 93 % 1017,0 hPa 0,0 mm W 261 0,0 km/h (0 Bft)
12.07.2015 05:15 13,9 C 93 % 1016,9 hPa 0,0 mm W 261 0,0 km/h (0 Bft)
12.07.2015 05:20 14,0 C 93 % 1017,0 hPa 0,0 mm W 261 0,0 km/h (0 Bft)
12.07.2015 05:25 14,1 C 93 % 1017,0 hPa 0,0 mm W 261 0,0 km/h (0 Bft)
12.07.2015 05:30 14,0 C 93 % 1017,0 hPa 0,0 mm W 261 0,0 km/h (0 Bft)
12.07.2015 05:35 13,9 C 93 % 1017,0 hPa 0,0 mm W 261 0,0 km/h (0 Bft)
12.07.2015 05:40 13,9 C 93 % 1017,0 hPa 0,0 mm W 261 0,0 km/h (0 Bft)
12.07.2015 05:45 13,9 C 93 % 1017,0 hPa 0,0 mm W 261 0,0 km/h (0 Bft)
12.07.2015 05:50 14,0 C 93 % 1017,0 hPa 0,0 mm W 261 0,0 km/h (0 Bft)
12.07.2015 05:55 14,1 C 93 % 1017,0 hPa 0,0 mm W 261 1,6 km/h (1 Bft)
12.07.2015 06:00 14,2 C 93 % 1017,1 hPa 0,0 mm W 261 1,6 km/h (1 Bft)
12.07.2015 06:05 14,2 C 93 % 1017,1 hPa 0,0 mm W 261 0,0 km/h (0 Bft)
12.07.2015 06:10 14,4 C 93 % 1017,0 hPa 0,0 mm W 261 1,6 km/h (1 Bft)
12.07.2015 06:15 14,5 C 93 % 1017,0 hPa 0,0 mm W 261 1,6 km/h (1 Bft)
12.07.2015 06:20 14,6 C 93 % 1017,0 hPa 0,0 mm W 261 1,6 km/h (1 Bft)
12.07.2015 06:25 14,8 C 93 % 1017,0 hPa 0,0 mm W 261 3,2 km/h (1 Bft)
12.07.2015 06:30 14,9 C 93 % 1017,0 hPa 0,0 mm W 261 1,6 km/h (1 Bft)
12.07.2015 06:35 15,0 C 93 % 1017,1 hPa 0,0 mm W 261 3,2 km/h (1 Bft)
12.07.2015 06:40 15,2 C 93 % 1017,1 hPa 0,0 mm W 261 4,8 km/h (1 Bft)
12.07.2015 06:45 15,4 C 93 % 1017,1 hPa 0,0 mm W 261 1,6 km/h (1 Bft)
12.07.2015 06:50 15,6 C 93 % 1017,0 hPa 0,0 mm W 261 4,8 km/h (1 Bft)
12.07.2015 06:55 16,0 C 93 % 1017,1 hPa 0,0 mm W 261 1,6 km/h (1 Bft)
12.07.2015 07:00 16,2 C 93 % 1017,1 hPa 0,0 mm W 261 3,2 km/h (1 Bft)
12.07.2015 07:05 16,6 C 92 % 1017,1 hPa 0,0 mm W 261 3,2 km/h (1 Bft)
12.07.2015 07:10 16,8 C 92 % 1017,1 hPa 0,0 mm W 261 3,2 km/h (1 Bft)
12.07.2015 07:15 17,1 C 91 % 1017,1 hPa 0,0 mm W 261 1,6 km/h (1 Bft)
12.07.2015 07:20 17,4 C 91 % 1017,0 hPa 0,0 mm W 261 3,2 km/h (1 Bft)
12.07.2015 07:25 17,9 C 91 % 1017,0 hPa 0,0 mm W 261 1,6 km/h (1 Bft)
12.07.2015 07:30 18,2 C 90 % 1017,0 hPa 0,0 mm W 261 3,2 km/h (1 Bft)
12.07.2015 07:35 18,6 C 89 % 1017,0 hPa 0,0 mm W 261 3,2 km/h (1 Bft)
12.07.2015 07:40 18,8 C 88 % 1017,0 hPa 0,0 mm W 261 3,2 km/h (1 Bft)
12.07.2015 07:45 18,9 C 86 % 1017,0 hPa 0,0 mm W 261 1,6 km/h (1 Bft)
12.07.2015 07:50 18,6 C 87 % 1017,0 hPa 0,0 mm W 261 1,6 km/h (1 Bft)
12.07.2015 07:55 18,4 C 88 % 1017,0 hPa 0,0 mm W 261 1,6 km/h (1 Bft)
12.07.2015 08:00 18,5 C 88 % 1017,1 hPa 0,0 mm W 261 1,6 km/h (1 Bft)
12.07.2015 08:05 18,4 C 87 % 1017,0 hPa 0,0 mm W 261 0,0 km/h (0 Bft)
12.07.2015 08:10 18,5 C 87 % 1017,1 hPa 0,0 mm W 261 1,6 km/h (1 Bft)
12.07.2015 08:15 18,8 C 88 % 1017,0 hPa 0,0 mm W 261 1,6 km/h (1 Bft)
12.07.2015 08:20 19,1 C 87 % 1017,1 hPa 0,0 mm W 261 1,6 km/h (1 Bft)
12.07.2015 08:25 19,0 C 88 % 1017,0 hPa 0,0 mm W 261 1,6 km/h (1 Bft)
12.07.2015 08:30 19,3 C 88 % 1017,0 hPa 0,0 mm W 261 0,0 km/h (0 Bft)
12.07.2015 08:35 19,6 C 86 % 1017,0 hPa 0,0 mm W 261 1,6 km/h (1 Bft)
12.07.2015 08:40 19,6 C 86 % 1017,0 hPa 0,0 mm W 261 1,6 km/h (1 Bft)
12.07.2015 08:45 19,9 C 87 % 1017,0 hPa 0,0 mm W 261 0,0 km/h (0 Bft)
12.07.2015 08:50 20,2 C 86 % 1017,0 hPa 0,0 mm W 261 1,6 km/h (1 Bft)
12.07.2015 08:55 20,4 C 87 % 1017,0 hPa 0,0 mm S-SO 161 4,8 km/h (1 Bft)
12.07.2015 09:00 20,7 C 87 % 1017,0 hPa 0,0 mm S-SO 147 3,2 km/h (1 Bft)
12.07.2015 09:05 20,8 C 87 % 1017,0 hPa 0,0 mm S-SO 147 3,2 km/h (1 Bft)
12.07.2015 09:10 21,1 C 86 % 1017,0 hPa 0,0 mm O 94 4,8 km/h (1 Bft)
12.07.2015 09:15 21,2 C 84 % 1016,9 hPa 0,0 mm O 83 3,2 km/h (1 Bft)
12.07.2015 09:20 21,4 C 83 % 1016,9 hPa 0,0 mm O-SO 109 3,2 km/h (1 Bft)
12.07.2015 09:25 21,7 C 81 % 1016,9 hPa 0,0 mm O-SO 107 3,2 km/h (1 Bft)
12.07.2015 09:30 22,1 C 80 % 1016,9 hPa 0,0 mm O-SO 107 1,6 km/h (1 Bft)
12.07.2015 09:35 22,3 C 80 % 1016,9 hPa 0,0 mm O-SO 113 4,8 km/h (1 Bft)
12.07.2015 09:40 22,8 C 77 % 1016,8 hPa 0,0 mm SO 141 4,8 km/h (1 Bft)
12.07.2015 09:45 23,0 C 71 % 1016,8 hPa 0,0 mm SO 141 3,2 km/h (1 Bft)
12.07.2015 09:50 23,6 C 70 % 1016,8 hPa 0,0 mm S-SO 149 3,2 km/h (1 Bft)
12.07.2015 09:55 23,7 C 71 % 1016,7 hPa 0,0 mm S-SO 149 3,2 km/h (1 Bft)
12.07.2015 10:00 23,9 C 72 % 1016,8 hPa 0,0 mm S-SO 149 3,2 km/h (1 Bft)
12.07.2015 10:05 24,3 C 68 % 1016,8 hPa 0,0 mm O-SO 102 4,8 km/h (1 Bft)
12.07.2015 10:10 25,4 C 56 % 1016,7 hPa 0,0 mm W 261 12,9 km/h (3 Bft)
12.07.2015 10:15 26,1 C 49 % 1016,7 hPa 0,0 mm W-SW 243 14,5 km/h (3 Bft)
12.07.2015 10:20 26,2 C 52 % 1016,8 hPa 0,0 mm W-NW 288 12,9 km/h (3 Bft)
12.07.2015 10:25 26,3 C 50 % 1016,8 hPa 0,0 mm W-SW 254 14,5 km/h (3 Bft)
12.07.2015 10:30 26,3 C 49 % 1016,8 hPa 0,0 mm W 273 14,5 km/h (3 Bft)
12.07.2015 10:35 26,9 C 49 % 1016,7 hPa 0,0 mm W 261 11,3 km/h (2 Bft)
12.07.2015 10:40 27,0 C 49 % 1016,7 hPa 0,0 mm W 263 11,3 km/h (2 Bft)
12.07.2015 10:45 27,2 C 47 % 1016,7 hPa 0,0 mm W-SW 254 11,3 km/h (2 Bft)
12.07.2015 10:50 27,1 C 47 % 1016,7 hPa 0,0 mm W-SW 244 11,3 km/h (2 Bft)
12.07.2015 10:55 27,4 C 47 % 1016,7 hPa 0,0 mm W 270 6,4 km/h (2 Bft)
12.07.2015 11:00 27,4 C 46 % 1016,7 hPa 0,0 mm W 281 12,9 km/h (3 Bft)
12.07.2015 11:05 27,6 C 44 % 1016,6 hPa 0,0 mm W-SW 246 11,3 km/h (2 Bft)
12.07.2015 11:10 27,8 C 48 % 1016,6 hPa 0,0 mm W 266 11,3 km/h (2 Bft)
12.07.2015 11:15 27,9 C 43 % 1016,6 hPa 0,0 mm W 266 12,9 km/h (3 Bft)
12.07.2015 11:20 28,0 C 42 % 1016,6 hPa 0,0 mm W 263 12,9 km/h (3 Bft)
12.07.2015 11:25 27,7 C 41 % 1016,6 hPa 0,0 mm W 280 14,5 km/h (3 Bft)
12.07.2015 11:30 28,2 C 43 % 1016,5 hPa 0,0 mm W 263 12,9 km/h (3 Bft)
12.07.2015 11:35 28,1 C 41 % 1016,5 hPa 0,0 mm W-SW 248 12,9 km/h (3 Bft)
12.07.2015 11:40 27,9 C 40 % 1016,6 hPa 0,0 mm W 266 14,5 km/h (3 Bft)
12.07.2015 11:45 28,3 C 42 % 1016,5 hPa 0,0 mm W-NW 285 12,9 km/h (3 Bft)
12.07.2015 11:50 27,9 C 40 % 1016,5 hPa 0,0 mm W 267 19,3 km/h (3 Bft)
12.07.2015 11:55 27,8 C 40 % 1016,6 hPa 0,0 mm W-SW 257 19,3 km/h (3 Bft)
12.07.2015 12:00 28,1 C 41 % 1016,5 hPa 0,0 mm W 275 11,3 km/h (2 Bft)
12.07.2015 12:05 28,3 C 39 % 1016,4 hPa 0,0 mm W 265 11,3 km/h (2 Bft)
12.07.2015 12:10 28,7 C 41 % 1016,5 hPa 0,0 mm W-SW 246 12,9 km/h (3 Bft)
12.07.2015 12:15 28,2 C 39 % 1016,4 hPa 0,0 mm W 267 16,1 km/h (3 Bft)
12.07.2015 12:20 28,6 C 35 % 1016,4 hPa 0,0 mm W-SW 244 12,9 km/h (3 Bft)
12.07.2015 12:25 28,6 C 39 % 1016,4 hPa 0,0 mm W-NW 284 11,3 km/h (2 Bft)
12.07.2015 12:30 28,8 C 39 % 1016,3 hPa 0,0 mm W-SW 256 11,3 km/h (2 Bft)
12.07.2015 12:35 28,9 C 37 % 1016,3 hPa 0,0 mm W-NW 302 11,3 km/h (2 Bft)
12.07.2015 12:40 28,9 C 36 % 1016,3 hPa 0,0 mm W-SW 251 12,9 km/h (3 Bft)
12.07.2015 12:45 28,9 C 37 % 1016,4 hPa 0,0 mm W-NW 282 12,9 km/h (3 Bft)
12.07.2015 12:50 29,0 C 38 % 1016,3 hPa 0,0 mm W 260 11,3 km/h (2 Bft)
12.07.2015 12:55 28,6 C 40 % 1016,3 hPa 0,0 mm W-SW 256 8,0 km/h (2 Bft)
12.07.2015 13:00 29,0 C 36 % 1016,2 hPa 0,0 mm W-SW 248 9,7 km/h (2 Bft)
12.07.2015 13:05 28,8 C 37 % 1016,2 hPa 0,0 mm W 267 14,5 km/h (3 Bft)
12.07.2015 13:10 28,7 C 39 % 1016,2 hPa 0,0 mm W 265 9,7 km/h (2 Bft)
12.07.2015 13:15 29,2 C 37 % 1016,1 hPa 0,0 mm W 269 11,3 km/h (2 Bft)
12.07.2015 13:20 29,3 C 40 % 1016,1 hPa 0,0 mm S-SW 200 6,4 km/h (2 Bft)
12.07.2015 13:25 29,0 C 42 % 1016,0 hPa 0,0 mm W 277 8,0 km/h (2 Bft)
12.07.2015 13:30 28,9 C 38 % 1015,9 hPa 0,0 mm W-NW 284 11,3 km/h (2 Bft)
12.07.2015 13:35 28,9 C 39 % 1015,8 hPa 0,0 mm W-SW 252 8,0 km/h (2 Bft)
12.07.2015 13:40 28,9 C 36 % 1015,8 hPa 0,0 mm W-SW 251 16,1 km/h (3 Bft)
12.07.2015 13:45 28,5 C 39 % 1015,7 hPa 0,0 mm W 264 8,0 km/h (2 Bft)
12.07.2015 13:50 28,4 C 37 % 1015,7 hPa 0,0 mm W-SW 248 17,7 km/h (3 Bft)
12.07.2015 13:55 28,6 C 39 % 1015,6 hPa 0,0 mm N-NW 331 6,4 km/h (2 Bft)
12.07.2015 14:00 28,3 C 41 % 1015,5 hPa 0,0 mm W-SW 243 12,9 km/h (3 Bft)
12.07.2015 14:05 28,2 C 40 % 1015,4 hPa 0,0 mm W-SW 245 12,9 km/h (3 Bft)
12.07.2015 14:10 28,0 C 40 % 1015,3 hPa 0,0 mm N 9 8,0 km/h (2 Bft)
12.07.2015 14:15 28,1 C 42 % 1015,3 hPa 0,0 mm W-SW 258 11,3 km/h (2 Bft)
12.07.2015 14:20 28,6 C 40 % 1015,3 hPa 0,0 mm W-SW 246 11,3 km/h (2 Bft)
12.07.2015 14:25 28,9 C 40 % 1015,2 hPa 0,0 mm W 267 6,4 km/h (2 Bft)
12.07.2015 14:30 29,1 C 36 % 1015,3 hPa 0,0 mm W-SW 247 11,3 km/h (2 Bft)
12.07.2015 14:35 29,0 C 35 % 1015,4 hPa 0,0 mm W-SW 252 14,5 km/h (3 Bft)
12.07.2015 14:40 28,8 C 40 % 1015,3 hPa 0,0 mm W 267 11,3 km/h (2 Bft)
12.07.2015 14:45 28,6 C 41 % 1015,3 hPa 0,0 mm W 267 9,7 km/h (2 Bft)
12.07.2015 14:50 29,4 C 37 % 1015,2 hPa 0,0 mm W-SW 246 11,3 km/h (2 Bft)
12.07.2015 14:55 28,7 C 38 % 1015,2 hPa 0,0 mm W-SW 237 11,3 km/h (2 Bft)
12.07.2015 15:00 28,4 C 39 % 1015,1 hPa 0,0 mm W-NW 290 9,7 km/h (2 Bft)
12.07.2015 15:05 28,7 C 42 % 1015,0 hPa 0,0 mm W 280 11,3 km/h (2 Bft)
12.07.2015 15:10 29,1 C 38 % 1015,0 hPa 0,0 mm SW 235 11,3 km/h (2 Bft)
12.07.2015 15:15 28,8 C 39 % 1015,0 hPa 0,0 mm N 5 14,5 km/h (3 Bft)
12.07.2015 15:20 28,3 C 38 % 1015,0 hPa 0,0 mm SW 233 12,9 km/h (3 Bft)
12.07.2015 15:25 27,8 C 41 % 1015,0 hPa 0,0 mm N-NW 342 9,7 km/h (2 Bft)
12.07.2015 15:30 28,7 C 40 % 1014,9 hPa 0,0 mm W-NW 289 12,9 km/h (3 Bft)
12.07.2015 15:35 28,3 C 38 % 1014,9 hPa 0,0 mm N-NO 23 12,9 km/h (3 Bft)
12.07.2015 15:40 28,4 C 39 % 1014,8 hPa 0,0 mm W-SW 243 16,1 km/h (3 Bft)
12.07.2015 15:45 28,3 C 37 % 1014,8 hPa 0,0 mm NO 43 9,7 km/h (2 Bft)
12.07.2015 15:50 28,5 C 39 % 1014,7 hPa 0,0 mm W 266 14,5 km/h (3 Bft)
12.07.2015 15:55 28,9 C 36 % 1014,8 hPa 0,0 mm W 261 14,5 km/h (3 Bft)
12.07.2015 16:00 28,7 C 39 % 1014,6 hPa 0,0 mm N-NO 21 11,3 km/h (2 Bft)
12.07.2015 16:05 28,5 C 38 % 1014,7 hPa 0,0 mm W-SW 247 12,9 km/h (3 Bft)
12.07.2015 16:10 27,6 C 40 % 1014,5 hPa 0,0 mm N 355 1,6 km/h (1 Bft)
12.07.2015 16:15 28,6 C 39 % 1014,5 hPa 0,0 mm W 271 19,3 km/h (3 Bft)
12.07.2015 16:20 28,1 C 41 % 1014,4 hPa 0,0 mm W 259 9,7 km/h (2 Bft)
12.07.2015 16:25 27,7 C 41 % 1014,4 hPa 0,0 mm W 265 6,4 km/h (2 Bft)
12.07.2015 16:30 28,6 C 37 % 1014,3 hPa 0,0 mm W 262 12,9 km/h (3 Bft)
12.07.2015 16:35 28,4 C 38 % 1014,4 hPa 0,0 mm W-SW 256 12,9 km/h (3 Bft)
12.07.2015 16:40 28,2 C 39 % 1014,3 hPa 0,0 mm W-SW 252 8,0 km/h (2 Bft)
12.07.2015 16:45 28,6 C 40 % 1014,2 hPa 0,0 mm W 261 8,0 km/h (2 Bft)
12.07.2015 16:50 28,2 C 38 % 1014,2 hPa 0,0 mm W-SW 246 11,3 km/h (2 Bft)
12.07.2015 16:55 28,2 C 41 % 1014,1 hPa 0,0 mm NW 305 9,7 km/h (2 Bft)
12.07.2015 17:00 28,1 C 41 % 1014,2 hPa 0,0 mm W 278 11,3 km/h (2 Bft)
12.07.2015 17:05 28,0 C 39 % 1014,2 hPa 0,0 mm W-SW 248 14,5 km/h (3 Bft)
12.07.2015 17:10 27,7 C 42 % 1014,2 hPa 0,0 mm W 262 8,0 km/h (2 Bft)
12.07.2015 17:15 27,8 C 41 % 1014,1 hPa 0,0 mm N 5 9,7 km/h (2 Bft)
12.07.2015 17:20 27,7 C 41 % 1014,1 hPa 0,0 mm W 265 9,7 km/h (2 Bft)
12.07.2015 17:25 27,6 C 45 % 1014,2 hPa 0,0 mm W 260 12,9 km/h (3 Bft)
12.07.2015 17:30 27,8 C 40 % 1014,1 hPa 0,0 mm W-SW 257 8,0 km/h (2 Bft)
12.07.2015 17:35 27,8 C 42 % 1014,1 hPa 0,0 mm W-SW 256 4,8 km/h (1 Bft)
12.07.2015 17:40 28,1 C 42 % 1014,0 hPa 0,0 mm W-SW 254 8,0 km/h (2 Bft)
12.07.2015 17:45 28,1 C 40 % 1014,0 hPa 0,0 mm W-SW 247 11,3 km/h (2 Bft)
12.07.2015 17:50 27,7 C 41 % 1014,0 hPa 0,0 mm W 269 9,7 km/h (2 Bft)
12.07.2015 17:55 27,4 C 41 % 1013,9 hPa 0,0 mm W-NW 286 6,4 km/h (2 Bft)
12.07.2015 18:00 27,5 C 42 % 1013,8 hPa 0,0 mm W-SW 254 8,0 km/h (2 Bft)
12.07.2015 18:05 27,2 C 45 % 1013,8 hPa 0,0 mm W-SW 246 4,8 km/h (1 Bft)
12.07.2015 18:10 27,3 C 45 % 1013,8 hPa 0,0 mm W-SW 256 6,4 km/h (2 Bft)
12.07.2015 18:15 27,2 C 42 % 1013,8 hPa 0,0 mm W 261 8,0 km/h (2 Bft)
12.07.2015 18:20 27,3 C 42 % 1013,7 hPa 0,0 mm W-NW 284 9,7 km/h (2 Bft)
12.07.2015 18:25 27,1 C 44 % 1013,7 hPa 0,0 mm W 260 8,0 km/h (2 Bft)
12.07.2015 18:30 26,7 C 46 % 1013,7 hPa 0,0 mm W 261 6,4 km/h (2 Bft)
12.07.2015 18:35 26,4 C 48 % 1013,8 hPa 0,0 mm W-SW 257 6,4 km/h (2 Bft)
12.07.2015 18:40 26,5 C 51 % 1013,8 hPa 0,0 mm W 267 6,4 km/h (2 Bft)
12.07.2015 18:45 26,8 C 49 % 1013,7 hPa 0,0 mm W-SW 250 4,8 km/h (1 Bft)
12.07.2015 18:50 26,8 C 48 % 1013,8 hPa 0,0 mm W-SW 250 3,2 km/h (1 Bft)
12.07.2015 18:55 26,7 C 49 % 1013,6 hPa 0,0 mm W-SW 251 4,8 km/h (1 Bft)
12.07.2015 19:00 26,4 C 53 % 1013,6 hPa 0,0 mm W 267 4,8 km/h (1 Bft)
12.07.2015 19:05 26,4 C 52 % 1013,6 hPa 0,0 mm W-NW 285 4,8 km/h (1 Bft)
12.07.2015 19:10 26,2 C 53 % 1013,6 hPa 0,0 mm W-NW 285 1,6 km/h (1 Bft)
12.07.2015 19:15 26,2 C 48 % 1013,6 hPa 0,0 mm W 259 4,8 km/h (1 Bft)
12.07.2015 19:20 26,3 C 48 % 1013,7 hPa 0,0 mm W 262 4,8 km/h (1 Bft)
12.07.2015 19:25 26,5 C 44 % 1013,7 hPa 0,0 mm W 264 8,0 km/h (2 Bft)
12.07.2015 19:30 26,1 C 48 % 1013,7 hPa 0,0 mm W 264 4,8 km/h (1 Bft)
12.07.2015 19:35 24,8 C 58 % 1013,7 hPa 0,0 mm W 264 0,0 km/h (0 Bft)
12.07.2015 19:40 23,9 C 63 % 1013,7 hPa 0,0 mm W 264 3,2 km/h (1 Bft)
12.07.2015 19:45 23,2 C 67 % 1013,6 hPa 0,0 mm W 264 0,0 km/h (0 Bft)
12.07.2015 19:50 22,8 C 67 % 1013,7 hPa 0,0 mm W 264 0,0 km/h (0 Bft)
12.07.2015 19:55 22,8 C 66 % 1013,7 hPa 0,0 mm W 264 0,0 km/h (0 Bft)
12.07.2015 20:00 22,7 C 69 % 1013,7 hPa 0,0 mm W 264 0,0 km/h (0 Bft)
12.07.2015 20:05 22,5 C 69 % 1013,7 hPa 0,0 mm W 264 0,0 km/h (0 Bft)
12.07.2015 20:10 22,7 C 67 % 1013,7 hPa 0,0 mm W 264 1,6 km/h (1 Bft)
12.07.2015 20:15 22,9 C 67 % 1013,7 hPa 0,0 mm W 264 0,0 km/h (0 Bft)
12.07.2015 20:20 22,3 C 73 % 1013,7 hPa 0,0 mm W 264 0,0 km/h (0 Bft)
12.07.2015 20:25 21,9 C 75 % 1013,7 hPa 0,0 mm W 264 0,0 km/h (0 Bft)
12.07.2015 20:30 21,4 C 77 % 1013,7 hPa 0,0 mm W 264 0,0 km/h (0 Bft)
12.07.2015 20:35 21,3 C 77 % 1013,8 hPa 0,0 mm W 264 0,0 km/h (0 Bft)
12.07.2015 20:40 21,5 C 74 % 1013,8 hPa 0,0 mm W 264 0,0 km/h (0 Bft)
12.07.2015 20:45 21,3 C 75 % 1013,8 hPa 0,0 mm W 264 0,0 km/h (0 Bft)
12.07.2015 20:50 21,2 C 77 % 1014,0 hPa 0,0 mm W 264 0,0 km/h (0 Bft)
12.07.2015 20:55 20,8 C 77 % 1014,0 hPa 0,0 mm W 264 0,0 km/h (0 Bft)
12.07.2015 21:00 20,7 C 77 % 1014,0 hPa 0,0 mm W 264 0,0 km/h (0 Bft)
12.07.2015 21:05 20,8 C 77 % 1014,2 hPa 0,0 mm W 264 1,6 km/h (1 Bft)
12.07.2015 21:10 20,7 C 78 % 1014,2 hPa 0,0 mm W 264 0,0 km/h (0 Bft)
12.07.2015 21:15 21,0 C 76 % 1014,2 hPa 0,0 mm W 264 1,6 km/h (1 Bft)
12.07.2015 21:20 20,7 C 79 % 1014,2 hPa 0,0 mm W 264 0,0 km/h (0 Bft)
12.07.2015 21:25 20,1 C 81 % 1014,2 hPa 0,0 mm W 264 0,0 km/h (0 Bft)
12.07.2015 21:30 20,2 C 81 % 1014,4 hPa 0,0 mm W 264 0,0 km/h (0 Bft)
12.07.2015 21:35 20,3 C 80 % 1014,5 hPa 0,0 mm W 264 1,6 km/h (1 Bft)
12.07.2015 21:40 20,7 C 77 % 1014,6 hPa 0,0 mm W 264 3,2 km/h (1 Bft)
12.07.2015 21:45 21,0 C 75 % 1014,6 hPa 0,0 mm W 264 1,6 km/h (1 Bft)
12.07.2015 21:50 21,2 C 73 % 1014,6 hPa 0,0 mm W 264 1,6 km/h (1 Bft)
12.07.2015 21:55 20,4 C 77 % 1014,7 hPa 0,0 mm W 264 0,0 km/h (0 Bft)
12.07.2015 22:00 20,1 C 79 % 1014,7 hPa 0,0 mm W 264 0,0 km/h (0 Bft)
12.07.2015 22:05 19,9 C 80 % 1014,7 hPa 0,0 mm W 264 0,0 km/h (0 Bft)
12.07.2015 22:10 19,7 C 80 % 1014,8 hPa 0,0 mm W 264 0,0 km/h (0 Bft)
12.07.2015 22:15 19,6 C 81 % 1014,9 hPa 0,0 mm W 264 0,0 km/h (0 Bft)
12.07.2015 22:20 19,9 C 78 % 1014,9 hPa 0,0 mm W 264 3,2 km/h (1 Bft)
12.07.2015 22:25 20,3 C 75 % 1015,1 hPa 0,0 mm W 264 4,8 km/h (1 Bft)
12.07.2015 22:30 19,9 C 79 % 1015,0 hPa 0,0 mm W 264 0,0 km/h (0 Bft)
12.07.2015 22:35 19,4 C 81 % 1015,1 hPa 0,0 mm W 264 0,0 km/h (0 Bft)
12.07.2015 22:40 19,2 C 83 % 1015,2 hPa 0,0 mm W 264 1,6 km/h (1 Bft)
12.07.2015 22:45 19,3 C 82 % 1015,3 hPa 0,0 mm W 264 1,6 km/h (1 Bft)
12.07.2015 22:50 19,6 C 80 % 1015,3 hPa 0,0 mm W 264 1,6 km/h (1 Bft)
12.07.2015 22:55 19,6 C 79 % 1015,3 hPa 0,0 mm W 264 1,6 km/h (1 Bft)
12.07.2015 23:00 19,5 C 79 % 1015,3 hPa 0,0 mm W 264 1,6 km/h (1 Bft)
12.07.2015 23:05 19,2 C 82 % 1015,3 hPa 0,0 mm W 264 0,0 km/h (0 Bft)
12.07.2015 23:10 19,0 C 82 % 1015,3 hPa 0,0 mm W 264 1,6 km/h (1 Bft)
12.07.2015 23:15 19,1 C 82 % 1015,3 hPa 0,0 mm W 264 3,2 km/h (1 Bft)
12.07.2015 23:20 19,2 C 82 % 1015,4 hPa 0,0 mm W 264 1,6 km/h (1 Bft)
12.07.2015 23:25 19,2 C 80 % 1015,4 hPa 0,0 mm W 264 1,6 km/h (1 Bft)
12.07.2015 23:30 19,2 C 80 % 1015,5 hPa 0,0 mm W 264 1,6 km/h (1 Bft)
12.07.2015 23:35 19,3 C 79 % 1015,6 hPa 0,0 mm W 264 3,2 km/h (1 Bft)
12.07.2015 23:40 19,4 C 79 % 1015,7 hPa 0,0 mm W 264 1,6 km/h (1 Bft)
12.07.2015 23:45 19,4 C 79 % 1015,6 hPa 0,0 mm W 264 0,0 km/h (0 Bft)
12.07.2015 23:50 19,1 C 81 % 1015,6 hPa 0,0 mm W 264 0,0 km/h (0 Bft)
12.07.2015 23:55 18,8 C 82 % 1015,7 hPa 0,0 mm W 264 0,0 km/h (0 Bft)
_ Min-Zeit 03:30 12:20 18:55 - - - 00:15
Minimum _ 13,5 C 35 % 1013,6 hPa - - - 0,0 km/h (0 Bft)
_ Max-Zeit 14:30 01:35 00:00 00:00 - - 11:50
Maximum _ 29,5 C 93 % 1017,5 hPa 0,0 mm - - 19,3 km/h
W (3 Bft)
Durchschnitt _ 21,6 C 69 % 1015,9 hPa #0,0 mm W - 4,9 km/h (1 Bft)